sat.trackr.live / text

‹ back to catalog

STARLINK-35309

NORAD 66323 · 2025-253E

PAYLOAD ACTIVE UNKNOWN

§ Identity

Operator
Country
US
Launch date
2025-11-06
Launch site
AFETR
Launch vehicle
Mass (kg)
RCS (m²)

Purposes: comms

External: N2YO · Heavens-Above · Gunter

§ Orbital elements

Epoch: 2026-05-25T00:23:07.687680Z

Period
94.27 min
Inclination
43.0000°
Eccentricity
0.0001427
Mean motion
15.27573601 rev/d
Perigee alt
482.1 km
Apogee alt
484.0 km
Semi-major
6,861.2 km
B*
4.3904e-4
RAAN
141.7964°
Arg perigee
273.0283°
Mean anomaly
87.0405°
Rev number
3,191

§ Raw data

STARLINK-353091 66323U 25253E   26145.01606120  .00011836  00000+0  43904-3 0  99922 66323  43.0000 141.7964 0001427 273.0283  87.0405 15.27573601 31915

JSON: /api/v1/satellites/66323 · /tle

For live sub-satellite position, see the globe view (requires WebGL).

§ Visibility from observer

Set your observer location to see the next 7 days of passes ≥ 10°. The values pass through the URL so the page stays shareable.

No JS? Fill the form by hand. The geolocation button needs JavaScript.